Stations météo

réclame
Mon MeteoGroup
Charterhall, Grande-Bretagne (3158): Température de l'air & dewpoint: 17.04.2018 02:00:00 - 23.04.2018 02:00:00 (BST)Charterhall, Grande-Bretagne (3158): Température de l'air -20cm & Température de l'air -100cm: 17.04.2018 02:00:00 - 23.04.2018 02:00:00 (BST)Charterhall, Grande-Bretagne (3158): Vitesse du vent & gusts: 17.04.2018 02:00:00 - 23.04.2018 02:00:00 (BST)Charterhall, Grande-Bretagne (3158): Direction du vent: 17.04.2018 02:00:00 - 23.04.2018 02:00:00 (BST)Charterhall, Grande-Bretagne (3158): reduced air pressure: 17.04.2018 02:00:00 - 23.04.2018 02:00:00 (BST)Charterhall, Grande-Bretagne (3158): visibility: 17.04.2018 02:00:00 - 23.04.2018 02:00:00 (BST)Charterhall, Grande-Bretagne (3158): Ensoleillement: 17.04.2018 02:00:00 - 23.04.2018 02:00:00 (BST)Charterhall, Grande-Bretagne (3158): Quantités de précipitations: 17.04.2018 02:00:00 - 23.04.2018 02:00:00 (BST)
Date & Time tt [°C] td [°C] tt -20cm [°C] tt -100cm [°C] ff [km/h] ff [knt] fx [km/h] fx [knt] dd ppp [hPa] vv [km] sd [min] rr [mm]
23.04.2018 02:00:00 7,4 5,7 - - 16 9 - - SW 1004,0 50 0 0,0
23.04.2018 01:00:00 7,9 6,4 - - 18 10 - - SW 1003,7 50 - 0,0
23.04.2018 00:00:00 8,3 6,6 - - 18 10 - - WSW 1003,6 50 0 0,0
22.04.2018 23:00:00 8,2 6,6 - - 22 12 - - SSW 1003,7 50 0 0,0
22.04.2018 22:00:00 8,4 6,6 - - 28 15 - - SW 1003,9 50 0 0,0
22.04.2018 21:00:00 9,0 6,6 - - 28 15 - - SW 1003,9 50 0 0,2
22.04.2018 20:00:00 9,1 6,7 - - 24 13 52 28 SW 1003,9 50 0 0,2
22.04.2018 19:00:00 10,5 6,4 - - 26 14 - - SW 1003,4 50 36 0,0
22.04.2018 18:00:00 10,9 7,6 - - 22 12 - - SW 1003,4 50 18 0,4
22.04.2018 17:00:00 11,1 8,5 - - 22 12 - - SW 1003,2 28 6 0,2
22.04.2018 16:00:00 11,3 8,1 - - 29 16 46 25 SSW 1003,0 50 42 0,0
22.04.2018 15:00:00 10,2 7,7 - - 37 20 52 28 SW 1003,3 40 24 0,0
22.04.2018 14:00:00 10,7 7,0 - - 39 21 54 29 SW 1003,1 45 6 0,0
22.04.2018 13:00:00 10,7 6,4 - - 34 18 54 29 SW 1003,6 50 6 0,0
22.04.2018 12:00:00 9,6 5,7 - - 24 13 - - SSW 1003,5 50 0 0,2
22.04.2018 11:00:00 10,8 5,3 - - 21 11 - - SW 1004,2 50 0 0,0
22.04.2018 10:00:00 11,8 5,1 10,2 7,5 28 15 - - SW 1004,0 50 0 0,0
22.04.2018 09:00:00 13,1 9,7 - - 21 11 - - SW 1003,6 15 6 0,0
22.04.2018 08:00:00 12,8 11,0 - - 16 9 - - SW 1003,8 11 0 0,0
22.04.2018 07:00:00 13,2 12,3 - - 18 10 - - SSW 1003,9 7 0 0,0
22.04.2018 06:00:00 12,4 11,6 - - 15 8 - - SSW 1004,3 8 0 0,0
22.04.2018 05:00:00 12,4 11,7 - - 15 8 - - SSW 1005,0 7 0 1,4
22.04.2018 04:00:00 13,6 12,3 - - 13 7 - - SSW 1006,1 3,7 0 2,4
22.04.2018 03:00:00 12,7 11,5 - - 11 6 - - SW 1007,1 12 0 0,0
22.04.2018 02:00:00 12,0 10,8 - - 8 4 - - WSW 1007,8 15 0 0,0
22.04.2018 01:00:00 11,7 9,7 - - 4 2 - - SSE 1008,6 12 - 0,0
22.04.2018 00:00:00 11,9 9,5 - - 4 2 - - SSW 1009,7 14 0 0,0
21.04.2018 23:00:00 11,0 8,9 - - 5 3 - - NE 1010,6 12 0 0,0
21.04.2018 22:00:00 11,6 9,1 - - 5 3 - - ENE 1011,4 14 0 0,0
21.04.2018 21:00:00 11,9 8,6 - - 8 4 - - E 1012,2 16 0 0,0
21.04.2018 20:00:00 14,6 9,3 - - 15 8 - - SE 1012,7 27 48 0,0
21.04.2018 19:00:00 16,3 10,0 - - 11 6 - - E 1013,2 20 60 0,0
21.04.2018 18:00:00 17,0 9,8 - - 16 9 - - ESE 1013,8 40 60 0,0
21.04.2018 17:00:00 18,9 4,7 - - 16 9 - - SW 1014,6 45 60 0,0
21.04.2018 16:00:00 18,4 6,9 - - 11 6 - - SSE 1015,5 29 60 0,0
21.04.2018 15:00:00 17,9 5,9 - - 15 8 - - S 1016,8 50 54 0,0
21.04.2018 14:00:00 17,5 6,5 - - 13 7 - - S 1018,1 40 48 0,0
21.04.2018 13:00:00 16,3 6,5 - - 11 6 - - SSW 1019,1 50 42 0,0
21.04.2018 12:00:00 15,8 6,1 - - 11 6 - - SSW 1019,9 40 60 0,0
21.04.2018 11:00:00 14,5 8,2 - - 13 7 - - SSW 1020,8 40 60 0,0
21.04.2018 10:00:00 12,0 7,8 9,7 7,2 13 7 - - SSW 1021,5 45 60 0,0
21.04.2018 09:00:00 10,1 7,1 - - 11 6 - - SW 1022,0 45 60 0,0
21.04.2018 08:00:00 8,0 7,0 - - 8 4 - - WSW 1022,4 35 60 0,0
21.04.2018 07:00:00 5,8 5,4 - - 5 3 - - WSW 1022,5 30 6 0,0
21.04.2018 06:00:00 5,8 5,4 - - 8 4 - - WSW 1022,6 27 0 0,0
21.04.2018 05:00:00 5,5 4,5 - - 4 2 - - SSW 1022,7 40 0 0,0
21.04.2018 04:00:00 6,0 4,9 - - 5 3 - - W 1023,2 45 0 0,0
21.04.2018 03:00:00 4,9 4,0 - - 4 2 - - SW 1023,3 50 0 0,0
21.04.2018 02:00:00 6,2 4,3 - - 8 4 - - W 1023,7 45 0 0,0
21.04.2018 01:00:00 6,2 4,5 - - 11 6 - - SW 1023,8 50 - 0,0
21.04.2018 00:00:00 7,8 5,0 - - 9 5 - - W 1023,7 50 0 0,0
20.04.2018 23:00:00 9,2 4,9 - - 5 3 - - WNW 1023,6 50 0 0,0
20.04.2018 22:00:00 10,0 5,1 - - 16 9 - - W 1023,4 50 0 0,0
20.04.2018 21:00:00 10,4 4,8 - - 11 6 - - W 1023,1 50 6 0,0
20.04.2018 20:00:00 12,6 4,3 - - 11 6 - - WSW 1022,5 40 60 0,0
20.04.2018 19:00:00 13,5 3,4 - - 22 12 - - W 1022,1 50 54 0,0
20.04.2018 18:00:00 14,6 4,0 - - 28 15 - - W 1022,1 35 60 0,0
20.04.2018 17:00:00 15,8 4,8 - - 28 15 - - W 1021,7 40 60 0,0
20.04.2018 16:00:00 16,7 6,0 - - 22 12 - - W 1021,3 45 54 0,0
20.04.2018 15:00:00 16,5 5,5 - - 24 13 - - W 1021,4 50 54 0,0
20.04.2018 14:00:00 17,6 6,7 - - 18 10 - - WSW 1021,3 45 60 0,0
20.04.2018 13:00:00 16,6 9,4 - - 24 13 - - SSW 1021,5 50 60 0,0
20.04.2018 12:00:00 15,8 9,5 - - 21 11 - - SSW 1021,6 50 60 0,0
20.04.2018 11:00:00 14,6 10,1 - - 21 11 - - SW 1021,9 50 60 0,0
20.04.2018 10:00:00 12,7 10,7 9,7 7,0 16 9 - - SSW 1022,0 35 60 0,0
20.04.2018 09:00:00 10,9 9,4 - - 15 8 - - SW 1022,1 40 60 0,0
20.04.2018 08:00:00 8,8 7,9 - - 15 8 - - WSW 1022,3 45 48 0,0
20.04.2018 07:00:00 7,2 6,8 - - 11 6 - - WSW 1022,2 40 24 0,0
20.04.2018 06:00:00 6,5 6,1 - - 11 6 - - WSW 1022,1 26 0 0,0
20.04.2018 05:00:00 7,1 6,8 - - 13 7 - - SW 1022,3 29 0 0,0
20.04.2018 04:00:00 7,4 7,1 - - 11 6 - - WSW 1022,1 40 0 0,0
20.04.2018 03:00:00 8,1 7,5 - - 13 7 - - WSW 1022,4 35 0 0,0
20.04.2018 02:00:00 8,0 7,2 - - 9 5 - - SW 1022,8 45 0 0,0
20.04.2018 01:00:00 9,4 8,3 - - 11 6 - - WSW 1023,0 50 - 0,0
20.04.2018 00:00:00 10,0 8,9 - - 15 8 - - WSW 1023,2 50 0 0,0
19.04.2018 23:00:00 10,5 9,0 - - 15 8 - - W 1023,4 50 0 0,0
19.04.2018 22:00:00 11,3 9,2 - - 11 6 - - WSW 1023,7 45 0 0,0
19.04.2018 21:00:00 12,3 9,2 - - 15 8 - - SW 1023,3 40 6 0,0
19.04.2018 20:00:00 14,1 10,0 - - 11 6 - - SW 1022,7 45 60 0,0
19.04.2018 19:00:00 15,6 10,6 - - 18 10 - - SSW 1022,6 50 60 0,0
19.04.2018 18:00:00 16,5 11,3 - - 26 14 - - SW 1022,5 50 60 0,0
19.04.2018 17:00:00 17,3 12,1 - - 26 14 - - SW 1022,2 50 60 0,0
19.04.2018 16:00:00 19,0 13,0 - - 28 15 - - SW 1021,9 50 60 0,0
19.04.2018 15:00:00 19,3 11,8 - - 28 15 - - SW 1021,9 35 60 0,0
19.04.2018 14:00:00 19,2 11,8 - - 31 17 - - SW 1021,8 35 60 0,0
19.04.2018 13:00:00 18,6 11,4 - - 28 15 - - SW 1021,8 40 60 0,0
19.04.2018 12:00:00 18,3 11,9 - - 31 17 - - SSW 1021,8 35 60 0,0
19.04.2018 11:00:00 17,0 11,3 - - 24 13 - - SW 1021,7 45 60 0,0
19.04.2018 10:00:00 15,5 10,6 8,9 6,9 18 10 - - SW 1021,6 22 60 0,0
19.04.2018 09:00:00 13,8 9,9 - - 16 9 - - SW 1021,3 30 60 -
19.04.2018 08:00:00 12,6 9,1 - - 13 7 - - SW 1021,0 35 60 0,0
19.04.2018 07:00:00 11,2 8,2 - - 13 7 - - WSW 1020,8 45 30 -
19.04.2018 06:00:00 11,2 8,5 - - 13 7 - - WSW 1020,4 50 0 -
19.04.2018 05:00:00 11,1 8,1 - - 11 6 - - SW 1020,3 50 0 -
19.04.2018 04:00:00 11,8 8,7 - - 11 6 - - SW 1020,6 45 0 -
19.04.2018 03:00:00 12,2 9,3 - - 8 4 - - SW 1020,8 50 0 -
19.04.2018 02:00:00 12,5 9,8 - - 5 3 - - N 1020,9 45 0 0,0
19.04.2018 01:00:00 14,4 10,8 - - 15 8 - - SSW 1020,9 50 - 0,0
19.04.2018 00:00:00 14,1 11,0 - - 9 5 - - WSW 1021,2 45 0 0,0
18.04.2018 23:00:00 14,3 10,9 - - 9 5 - - SSE 1021,3 50 0 0,0
18.04.2018 22:00:00 13,5 10,6 - - 9 5 - - SE 1021,5 45 0 0,0
18.04.2018 21:00:00 14,9 11,1 - - 15 8 - - SE 1021,7 50 0 0,0
18.04.2018 20:00:00 15,5 11,1 - - 18 10 - - SSE 1021,5 50 0 0,0
18.04.2018 19:00:00 16,5 10,9 - - 13 7 - - S 1021,5 50 0 0,0
18.04.2018 18:00:00 16,3 11,8 - - 9 5 - - SSW 1021,9 45 0 0,0
18.04.2018 17:00:00 16,7 11,8 - - 24 13 50 27 SSW 1022,2 50 24 0,0
18.04.2018 16:00:00 16,0 11,6 - - 26 14 - - SSW 1022,6 50 0 0,0
18.04.2018 15:00:00 15,1 11,0 - - 29 16 59 32 SW 1022,8 40 36 0,0
18.04.2018 14:00:00 14,1 11,1 - - 37 20 50 27 SSW 1022,8 50 0 0,0
18.04.2018 13:00:00 13,8 11,3 - - 22 12 46 25 SW 1022,8 50 0 0,0
18.04.2018 12:00:00 13,4 11,5 - - 24 13 50 27 SW 1022,1 45 0 0,0
18.04.2018 11:00:00 13,7 12,3 - - 24 13 - - SSW 1021,0 50 0 0,0
18.04.2018 10:00:00 11,6 11,1 8,5 6,7 11 6 - - S 1020,7 6 0 0,2
18.04.2018 09:00:00 10,1 9,5 - - 4 2 - - ENE 1020,2 7 0 0,0
18.04.2018 08:00:00 9,7 8,7 - - 4 2 - - SSW 1020,0 7 0 0,0
18.04.2018 07:00:00 9,1 8,0 - - 5 3 - - S 1019,4 30 0 0,0
18.04.2018 06:00:00 8,7 7,2 - - 9 5 - - S 1018,9 27 0 0,0
18.04.2018 05:00:00 10,3 8,3 - - 4 2 - - SW 1018,6 24 0 0,0
18.04.2018 04:00:00 10,8 8,8 - - 13 7 - - SSW 1018,6 35 0 0,0
18.04.2018 03:00:00 9,9 7,9 - - 4 2 - - ESE 1018,2 23 0 0,0
18.04.2018 02:00:00 11,0 8,2 - - 21 11 - - SSW 1017,7 29 0 0,0
18.04.2018 01:00:00 10,9 8,2 - - 22 12 - - SSW 1016,7 20 - 0,0
18.04.2018 00:00:00 11,1 8,5 - - 29 16 - - SW 1016,2 20 0 0,0
17.04.2018 23:00:00 10,8 8,1 - - 22 12 - - SW 1015,3 21 0 0,0
17.04.2018 22:00:00 11,3 8,4 - - 24 13 - - SW 1014,5 20 0 0,0
17.04.2018 21:00:00 11,7 8,3 - - 35 19 50 27 SW 1013,4 29 0 0,0
17.04.2018 20:00:00 12,0 8,3 - - 28 15 61 33 SW 1012,3 27 0 0,0
17.04.2018 19:00:00 12,5 8,5 - - 37 20 68 37 SW 1011,3 35 12 0,0
17.04.2018 18:00:00 13,1 8,0 - - 44 24 65 35 SW 1010,3 30 18 0,0
17.04.2018 17:00:00 13,5 8,8 - - 41 22 70 38 SSW 1009,6 40 36 0,0
17.04.2018 16:00:00 13,8 8,3 - - 48 26 68 37 SSW 1008,9 35 60 0,0
17.04.2018 15:00:00 13,1 10,0 - - 46 25 61 33 SW 1008,8 45 12 1,8
17.04.2018 14:00:00 11,8 10,2 - - 29 16 54 29 SSW 1008,3 8 6 0,2
17.04.2018 13:00:00 13,2 9,5 - - 37 20 61 33 SSW 1007,7 26 18 0,2
17.04.2018 12:00:00 13,4 8,6 - - 48 26 67 36 SSW 1007,5 50 36 0,0
17.04.2018 11:00:00 12,9 10,1 - - 35 19 57 31 SSW 1007,1 50 12 0,0
17.04.2018 10:00:00 13,1 9,0 8,0 6,5 35 19 54 29 SSW 1006,7 45 30 0,0
17.04.2018 09:00:00 11,7 7,7 - - 31 17 50 27 S 1006,1 50 0 0,0
17.04.2018 08:00:00 10,8 7,0 - - 26 14 - - S 1005,8 35 0 0,0
17.04.2018 07:00:00 10,3 6,2 - - 28 15 - - S 1005,6 45 0 0,0
17.04.2018 06:00:00 9,6 5,6 - - 22 12 46 25 S 1005,6 40 0 0,0
17.04.2018 05:00:00 9,8 5,1 - - 26 14 - - S 1006,5 50 0 0,0
17.04.2018 04:00:00 9,2 5,1 - - 16 9 - - S 1007,6 50 0 0,0
17.04.2018 03:00:00 9,1 5,2 - - 16 9 - - S 1008,1 50 0 0,0
17.04.2018 02:00:00 9,2 5,1 - - 18 10 - - S 1008,5 50 0 0,0

tt = Température de l'air
td = dewpoint
tt -20cm = Température de l'air -20cm
tt -100cm = Température de l'air -100cm
ff = Vitesse du vent
fx = gusts
dd = Direction du vent
ppp = reduced air pressure
vv = visibility
sd = Ensoleillement
rr = Quantités de précipitations

stations d'obs. à proximité